UKV819 LEBL-EGCC

Flight info

Callsign UKV819
Flight time 1h 57m
Altitude 36000
Route NATPI DCT EVNAM DCT TUPAR UN861 ANG DCT AKIKI UN867 AVANT UM184 HEMEL T420 ELVOS
Aircraft A321/M-SDE3FGIKRWXY/S

Departure

Time 2026-05-04 19:14
Airport Josep Tarradellas Barcelona-El Prat Airport (LEBL)

Arrival

Time 2026-05-04 21:11
Airport Manchester Airport (EGCC)
Time Latitude Longitude Altitude Speed Heading
2026-05-04 18:21 41.30031 2.07443 22 ft 0 kts 15°
2026-05-04 18:51 41.30010 2.07435 20 ft 4 kts 15°
2026-05-04 18:51 41.29984 2.07425 19 ft 4 kts 15°
2026-05-04 18:51 41.29960 2.07417 20 ft 1 kts 15°
2026-05-04 19:00 41.29961 2.07417 18 ft 1 kts 16°
2026-05-04 19:00 41.29968 2.07448 20 ft 6 kts 81°
2026-05-04 19:00 41.29977 2.07505 18 ft 8 kts 71°
2026-05-04 19:00 41.30009 2.07598 18 ft 12 kts 65°
2026-05-04 19:01 41.30045 2.07706 18 ft 14 kts 65°
2026-05-04 19:01 41.30086 2.07826 21 ft 15 kts 65°
2026-05-04 19:01 41.30107 2.07937 18 ft 11 kts 123°
2026-05-04 19:01 41.30034 2.07993 17 ft 11 kts 154°
2026-05-04 19:02 41.29966 2.08036 18 ft 11 kts 157°
2026-05-04 19:02 41.29889 2.08075 18 ft 12 kts 160°
2026-05-04 19:02 41.29805 2.08116 19 ft 13 kts 159°
2026-05-04 19:02 41.29713 2.08167 17 ft 16 kts 156°
2026-05-04 19:03 41.29608 2.08233 16 ft 18 kts 155°
2026-05-04 19:03 41.29532 2.08278 16 ft 18 kts 156°
2026-05-04 19:03 41.29416 2.08347 20 ft 18 kts 156°
2026-05-04 19:03 41.29322 2.08404 20 ft 14 kts 156°
2026-05-04 19:04 41.29231 2.08459 21 ft 15 kts 155°
2026-05-04 19:04 41.29134 2.08518 18 ft 14 kts 156°
2026-05-04 19:04 41.29041 2.08575 17 ft 14 kts 155°
2026-05-04 19:04 41.28955 2.08628 18 ft 15 kts 155°
2026-05-04 19:05 41.28868 2.08687 17 ft 11 kts 135°
2026-05-04 19:05 41.28881 2.08787 18 ft 12 kts 65°
2026-05-04 19:05 41.28920 2.08898 18 ft 14 kts 65°
2026-05-04 19:05 41.28963 2.09024 16 ft 16 kts 65°
2026-05-04 19:06 41.29009 2.09161 17 ft 18 kts 65°
2026-05-04 19:06 41.29067 2.09332 18 ft 21 kts 65°
2026-05-04 19:06 41.29129 2.09513 17 ft 20 kts 65°
2026-05-04 19:06 41.29188 2.09683 17 ft 21 kts 65°
2026-05-04 19:07 41.29246 2.09853 17 ft 20 kts 66°
2026-05-04 19:07 41.29288 2.09954 17 ft 10 kts 50°
2026-05-04 19:07 41.29324 2.10034 17 ft 11 kts 66°
2026-05-04 19:07 41.29355 2.10134 16 ft 13 kts 67°
2026-05-04 19:08 41.29354 2.10250 14 ft 15 kts 130°
2026-05-04 19:08 41.29325 2.10275 13 ft 0 kts 158°
2026-05-04 19:08 41.29324 2.10275 13 ft 0 kts 158°
2026-05-04 19:09 41.29314 2.10280 13 ft 3 kts 158°
2026-05-04 19:10 41.29284 2.10297 13 ft 6 kts 156°
2026-05-04 19:10 41.29248 2.10318 14 ft 6 kts 160°
2026-05-04 19:10 41.29216 2.10310 15 ft 4 kts 212°
2026-05-04 19:10 41.29201 2.10281 16 ft 4 kts 248°
2026-05-04 19:11 41.29196 2.10269 16 ft 0 kts 245°
2026-05-04 19:13 41.29193 2.10260 16 ft 7 kts 245°
2026-05-04 19:14 41.29059 2.09865 20 ft 85 kts 245°
2026-05-04 19:14 41.28719 2.08870 22 ft 148 kts 245°
2026-05-04 19:14 41.28231 2.07462 256 ft 177 kts 244°
2026-05-04 19:14 41.27688 2.05934 850 ft 188 kts 244°
2026-05-04 19:15 41.27043 2.04403 1632 ft 190 kts 229°
2026-05-04 19:15 41.25859 2.03614 2189 ft 203 kts 191°
2026-05-04 19:15 41.24406 2.03570 2671 ft 212 kts 183°
2026-05-04 19:15 41.22935 2.03586 3336 ft 214 kts 183°
2026-05-04 19:16 41.21438 2.03602 4033 ft 216 kts 184°
2026-05-04 19:16 41.19927 2.03596 4709 ft 217 kts 189°
2026-05-04 19:16 41.18516 2.02955 5266 ft 217 kts 217°
2026-05-04 19:16 41.17459 2.01507 5800 ft 221 kts 232°
2026-05-04 19:17 41.16495 1.99906 6455 ft 222 kts 234°
2026-05-04 19:17 41.15539 1.98280 7078 ft 224 kts 233°
2026-05-04 19:17 41.14593 1.96664 7686 ft 226 kts 233°
2026-05-04 19:17 41.13653 1.94987 8314 ft 227 kts 239°
2026-05-04 19:18 41.13026 1.93041 8798 ft 235 kts 252°
2026-05-04 19:18 41.12548 1.90930 9308 ft 241 kts 252°
2026-05-04 19:18 41.12057 1.88790 9881 ft 244 kts 252°
2026-05-04 19:18 41.11607 1.86604 10385 ft 247 kts 259°
2026-05-04 19:19 41.11597 1.84313 10899 ft 253 kts 275°
2026-05-04 19:19 41.12118 1.82041 11335 ft 262 kts 288°
2026-05-04 19:19 41.12799 1.79777 11834 ft 265 kts 287°
2026-05-04 19:19 41.13577 1.77570 12325 ft 272 kts 297°
2026-05-04 19:20 41.14784 1.75591 12821 ft 280 kts 311°
2026-05-04 19:20 41.16391 1.74049 13317 ft 290 kts 326°
2026-05-04 19:20 41.18186 1.72721 13597 ft 306 kts 326°
2026-05-04 19:20 41.20111 1.71280 13746 ft 329 kts 326°
2026-05-04 19:21 41.22192 1.69784 13865 ft 351 kts 329°
2026-05-04 19:21 41.24458 1.68331 14022 ft 371 kts 331°
2026-05-04 19:21 41.26849 1.66907 14475 ft 380 kts 332°
2026-05-04 19:21 41.29292 1.65499 15074 ft 384 kts 332°
2026-05-04 19:22 41.31731 1.64094 15671 ft 388 kts 332°
2026-05-04 19:22 41.34246 1.62621 16306 ft 392 kts 332°
2026-05-04 19:22 41.36711 1.61148 16903 ft 395 kts 332°
2026-05-04 19:22 41.39228 1.59623 17524 ft 399 kts 331°
2026-05-04 19:23 41.41763 1.58075 18109 ft 403 kts 331°
2026-05-04 19:23 41.44325 1.56508 18644 ft 407 kts 331°
2026-05-04 19:23 41.46902 1.54931 19171 ft 410 kts 331°
2026-05-04 19:23 41.49517 1.53333 19708 ft 413 kts 331°
2026-05-04 19:24 41.51754 1.51965 20186 ft 415 kts 331°
2026-05-04 19:24 41.54472 1.50473 20728 ft 421 kts 338°
2026-05-04 19:24 41.57353 1.49562 21232 ft 429 kts 347°
2026-05-04 19:24 41.60273 1.48931 21726 ft 432 kts 347°
2026-05-04 19:25 41.63251 1.48285 22202 ft 435 kts 347°
2026-05-04 19:25 41.66256 1.47624 22674 ft 438 kts 347°
2026-05-04 19:25 41.69282 1.46950 23149 ft 441 kts 347°
2026-05-04 19:25 41.72326 1.46266 23591 ft 444 kts 347°
2026-05-04 19:26 41.75383 1.45578 23971 ft 447 kts 347°
2026-05-04 19:26 41.78465 1.44885 24360 ft 450 kts 348°
2026-05-04 19:26 41.81567 1.44190 24714 ft 454 kts 348°
2026-05-04 19:26 41.84701 1.43488 25099 ft 456 kts 347°
2026-05-04 19:27 41.87798 1.42797 25477 ft 459 kts 347°
2026-05-04 19:27 41.90962 1.42093 25863 ft 462 kts 347°
2026-05-04 19:27 41.94140 1.41383 26242 ft 464 kts 347°
2026-05-04 19:27 41.97339 1.40664 26610 ft 467 kts 347°
2026-05-04 19:28 42.00558 1.39938 26961 ft 470 kts 347°
2026-05-04 19:28 42.03812 1.39205 27279 ft 474 kts 347°
2026-05-04 19:28 42.07072 1.38469 27622 ft 476 kts 347°
2026-05-04 19:28 42.10313 1.37733 27968 ft 479 kts 347°
2026-05-04 19:29 42.13610 1.36983 28325 ft 481 kts 347°
2026-05-04 19:29 42.16917 1.36232 28672 ft 483 kts 347°
2026-05-04 19:29 42.20247 1.35483 29007 ft 486 kts 347°
2026-05-04 19:29 42.23601 1.34728 29297 ft 490 kts 347°
2026-05-04 19:30 42.26967 1.33969 29711 ft 491 kts 347°
2026-05-04 19:30 42.30334 1.33205 30106 ft 490 kts 347°
2026-05-04 19:30 42.33694 1.32441 30476 ft 489 kts 347°
2026-05-04 19:30 42.37050 1.31677 30901 ft 488 kts 347°
2026-05-04 19:31 42.40402 1.30916 31340 ft 487 kts 346°
2026-05-04 19:31 42.43744 1.30156 31723 ft 487 kts 346°
2026-05-04 19:31 42.47084 1.29392 32095 ft 486 kts 346°
2026-05-04 19:31 42.50376 1.28636 32476 ft 485 kts 346°
2026-05-04 19:32 42.53699 1.27871 32895 ft 484 kts 346°
2026-05-04 19:32 42.57022 1.27108 33310 ft 482 kts 345°
2026-05-04 19:32 42.60327 1.26348 33711 ft 480 kts 343°
2026-05-04 19:32 42.63517 1.25122 34061 ft 474 kts 335°
2026-05-04 19:33 42.66603 1.23683 34309 ft 473 kts 335°
2026-05-04 19:33 42.69713 1.22220 34532 ft 473 kts 335°
2026-05-04 19:33 42.72766 1.20598 34798 ft 466 kts 326°
2026-05-04 19:33 42.75546 1.18382 35094 ft 461 kts 322°
2026-05-04 19:34 42.78259 1.16071 35361 ft 460 kts 322°
2026-05-04 19:34 42.80967 1.13751 35679 ft 459 kts 322°
2026-05-04 19:34 42.83659 1.11419 35925 ft 459 kts 322°
2026-05-04 19:35 42.89039 1.06730 35993 ft 458 kts 322°
2026-05-04 19:35 42.94407 1.02057 35993 ft 457 kts 322°
2026-05-04 19:36 42.99742 0.97411 35995 ft 457 kts 322°
2026-05-04 19:36 43.05103 0.92718 35998 ft 458 kts 322°
2026-05-04 19:37 43.10469 0.87979 36003 ft 459 kts 322°
2026-05-04 19:37 43.15853 0.83214 36009 ft 460 kts 322°
2026-05-04 19:38 43.21201 0.78472 36013 ft 460 kts 322°
2026-05-04 19:38 43.26579 0.73679 36042 ft 461 kts 322°
2026-05-04 19:39 43.31951 0.68852 36028 ft 461 kts 322°
2026-05-04 19:39 43.37330 0.64011 36018 ft 462 kts 322°
2026-05-04 19:40 43.42975 0.59867 36031 ft 472 kts 341°
2026-05-04 19:40 43.49424 0.57886 36014 ft 475 kts 344°
2026-05-04 19:41 43.55907 0.56020 36000 ft 476 kts 344°
2026-05-04 19:41 43.62401 0.54141 35997 ft 477 kts 344°
2026-05-04 19:42 43.68901 0.52232 36002 ft 478 kts 344°
2026-05-04 19:42 43.75416 0.50311 35993 ft 478 kts 344°
2026-05-04 19:43 43.81926 0.48379 35992 ft 478 kts 344°
2026-05-04 19:43 43.88411 0.46453 35996 ft 479 kts 344°
2026-05-04 19:44 43.94945 0.44516 35993 ft 480 kts 344°
2026-05-04 19:44 44.01476 0.42581 35990 ft 480 kts 344°
2026-05-04 19:45 44.08014 0.40635 35996 ft 480 kts 345°
2026-05-04 19:45 44.14508 0.38694 35991 ft 481 kts 345°
2026-05-04 19:46 44.21053 0.36727 36005 ft 481 kts 345°
2026-05-04 19:46 44.27595 0.34765 36000 ft 481 kts 345°
2026-05-04 19:47 44.34146 0.32802 35984 ft 481 kts 345°
2026-05-04 19:47 44.40711 0.30820 35982 ft 481 kts 345°
2026-05-04 19:48 44.47227 0.28854 35987 ft 482 kts 345°
2026-05-04 19:48 44.53796 0.26869 35977 ft 482 kts 345°
2026-05-04 19:49 44.60359 0.24878 35975 ft 482 kts 345°
2026-05-04 19:49 44.66924 0.22883 35980 ft 483 kts 345°
2026-05-04 19:50 44.73493 0.20884 35980 ft 483 kts 345°
2026-05-04 19:50 44.80038 0.18895 35978 ft 483 kts 345°
2026-05-04 19:51 44.86610 0.16886 35978 ft 483 kts 345°
2026-05-04 19:51 44.93194 0.14862 35979 ft 483 kts 345°
2026-05-04 19:52 44.99762 0.12836 35983 ft 483 kts 345°
2026-05-04 19:52 45.05232 0.11145 35975 ft 484 kts 345°
2026-05-04 19:53 45.11808 0.09115 35972 ft 484 kts 345°
2026-05-04 19:53 45.18396 0.07085 35968 ft 484 kts 345°
2026-05-04 19:54 45.24984 0.05039 35969 ft 484 kts 345°
2026-05-04 19:54 45.31532 0.02992 35967 ft 485 kts 345°
2026-05-04 19:55 45.38120 0.00939 35966 ft 485 kts 345°
2026-05-04 19:55 45.44724 -0.01124 35998 ft 485 kts 345°
2026-05-04 19:56 45.51318 -0.03198 35994 ft 484 kts 345°
2026-05-04 19:56 45.57895 -0.05257 35995 ft 483 kts 345°
2026-05-04 19:57 45.64418 -0.07306 35991 ft 483 kts 345°
2026-05-04 19:57 45.70994 -0.09381 35982 ft 483 kts 345°
2026-05-04 19:58 45.77567 -0.11460 35975 ft 483 kts 345°
2026-05-04 19:58 45.84127 -0.13541 35975 ft 483 kts 345°
2026-05-04 19:59 45.90702 -0.15637 35972 ft 483 kts 345°
2026-05-04 19:59 45.97268 -0.17732 35973 ft 483 kts 345°
2026-05-04 20:00 46.03830 -0.19832 35972 ft 483 kts 345°
2026-05-04 20:00 46.10397 -0.21934 35972 ft 484 kts 345°
2026-05-04 20:01 46.16936 -0.24032 35978 ft 484 kts 345°
2026-05-04 20:01 46.23506 -0.26143 35969 ft 484 kts 346°
2026-05-04 20:02 46.30086 -0.28263 35969 ft 484 kts 346°
2026-05-04 20:02 46.36671 -0.30393 35965 ft 484 kts 346°
2026-05-04 20:03 46.43213 -0.32514 35970 ft 484 kts 346°
2026-05-04 20:03 46.49802 -0.34666 35970 ft 485 kts 346°
2026-05-04 20:04 46.56389 -0.36813 35975 ft 485 kts 346°
2026-05-04 20:04 46.62987 -0.38962 35983 ft 485 kts 346°
2026-05-04 20:05 46.69585 -0.41109 35991 ft 486 kts 346°
2026-05-04 20:05 46.76145 -0.43260 35981 ft 486 kts 346°
2026-05-04 20:06 46.82736 -0.45435 35979 ft 486 kts 346°
2026-05-04 20:06 46.89349 -0.47620 35978 ft 486 kts 346°
2026-05-04 20:07 46.95947 -0.49802 35985 ft 486 kts 346°
2026-05-04 20:07 47.02564 -0.51990 35989 ft 486 kts 346°
2026-05-04 20:08 47.09121 -0.54172 35985 ft 486 kts 346°
2026-05-04 20:08 47.15721 -0.56372 35984 ft 486 kts 346°
2026-05-04 20:09 47.22319 -0.58575 35989 ft 486 kts 346°
2026-05-04 20:09 47.28918 -0.60794 35986 ft 486 kts 346°
2026-05-04 20:10 47.35512 -0.63009 35976 ft 486 kts 346°
2026-05-04 20:10 47.42108 -0.65222 35972 ft 485 kts 346°
2026-05-04 20:11 47.48702 -0.67444 35973 ft 485 kts 346°
2026-05-04 20:11 47.55245 -0.69656 35979 ft 485 kts 346°
2026-05-04 20:12 47.61828 -0.71892 35972 ft 485 kts 346°
2026-05-04 20:12 47.68416 -0.74140 35981 ft 485 kts 345°
2026-05-04 20:13 47.75011 -0.76395 35982 ft 485 kts 346°
2026-05-04 20:13 47.81593 -0.78637 35996 ft 485 kts 346°
2026-05-04 20:14 47.88186 -0.80888 35996 ft 485 kts 345°
2026-05-04 20:14 47.94769 -0.83163 35995 ft 485 kts 345°
2026-05-04 20:15 48.01309 -0.85431 36005 ft 485 kts 346°
2026-05-04 20:15 48.07874 -0.87695 35998 ft 484 kts 346°
2026-05-04 20:16 48.14444 -0.89958 35996 ft 484 kts 346°
2026-05-04 20:16 48.21016 -0.92229 35995 ft 484 kts 346°
2026-05-04 20:17 48.27586 -0.94519 36003 ft 484 kts 346°
2026-05-04 20:17 48.34141 -0.96819 36004 ft 483 kts 345°
2026-05-04 20:18 48.40653 -0.99106 36006 ft 483 kts 345°
2026-05-04 20:18 48.47210 -1.01408 36009 ft 483 kts 346°
2026-05-04 20:19 48.53765 -1.03707 36016 ft 483 kts 346°
2026-05-04 20:19 48.60315 -1.06025 36015 ft 482 kts 345°
2026-05-04 20:20 48.66853 -1.08339 36016 ft 482 kts 346°
2026-05-04 20:20 48.73380 -1.10645 36021 ft 481 kts 346°
2026-05-04 20:21 48.79900 -1.12963 36021 ft 481 kts 345°
2026-05-04 20:21 48.89619 -1.16432 36023 ft 480 kts 345°
2026-05-04 20:22 48.96121 -1.18765 36021 ft 480 kts 345°
2026-05-04 20:22 49.02622 -1.21096 36021 ft 480 kts 345°
2026-05-04 20:23 49.09134 -1.23436 36022 ft 480 kts 345°
2026-05-04 20:23 49.15634 -1.25787 36028 ft 479 kts 345°
2026-05-04 20:24 49.22121 -1.28146 36028 ft 479 kts 345°
2026-05-04 20:24 49.28572 -1.30487 36032 ft 479 kts 345°
2026-05-04 20:25 49.35055 -1.32842 36036 ft 478 kts 346°
2026-05-04 20:25 49.41533 -1.35200 36052 ft 477 kts 346°
2026-05-04 20:26 49.47998 -1.37558 36050 ft 477 kts 346°
2026-05-04 20:26 49.54470 -1.39940 36051 ft 476 kts 346°
2026-05-04 20:27 49.60959 -1.41440 36049 ft 476 kts
2026-05-04 20:27 49.67573 -1.40920 36049 ft 475 kts
2026-05-04 20:28 49.74175 -1.40332 36042 ft 475 kts
2026-05-04 20:28 49.80767 -1.39756 36045 ft 474 kts
2026-05-04 20:29 49.87351 -1.39172 36041 ft 473 kts
2026-05-04 20:29 49.93889 -1.38585 36032 ft 473 kts
2026-05-04 20:30 50.00417 -1.37931 36031 ft 472 kts
2026-05-04 20:30 50.06859 -1.36346 36023 ft 472 kts
2026-05-04 20:31 50.13355 -1.34725 36019 ft 473 kts
2026-05-04 20:31 50.19869 -1.33109 36026 ft 474 kts
2026-05-04 20:32 50.26382 -1.31487 36032 ft 473 kts
2026-05-04 20:32 50.32885 -1.29858 36032 ft 473 kts
2026-05-04 20:33 50.39386 -1.28233 36035 ft 473 kts
2026-05-04 20:33 50.45897 -1.26578 36041 ft 472 kts 10°
2026-05-04 20:34 50.52077 -1.23466 36043 ft 470 kts 27°
2026-05-04 20:34 50.57647 -1.18142 36039 ft 469 kts 33°
2026-05-04 20:35 50.63169 -1.12655 36038 ft 469 kts 33°
2026-05-04 20:35 50.68686 -1.07174 36060 ft 468 kts 33°
2026-05-04 20:36 50.74164 -1.01708 36040 ft 467 kts 33°
2026-05-04 20:36 50.79680 -0.96182 36048 ft 466 kts 32°
2026-05-04 20:37 50.85548 -0.92018 36027 ft 467 kts 18°
2026-05-04 20:37 50.91732 -0.88833 36049 ft 467 kts 18°
2026-05-04 20:38 50.97911 -0.85621 36046 ft 467 kts 18°
2026-05-04 20:38 51.03051 -0.82943 36058 ft 467 kts 18°
2026-05-04 20:39 51.09223 -0.79723 36047 ft 466 kts 18°
2026-05-04 20:39 51.15405 -0.76502 36061 ft 466 kts 18°
2026-05-04 20:40 51.21527 -0.73300 36044 ft 466 kts 18°
2026-05-04 20:40 51.27696 -0.70067 36045 ft 466 kts 18°
2026-05-04 20:41 51.33861 -0.66818 36062 ft 466 kts 18°
2026-05-04 20:41 51.40009 -0.63583 36070 ft 465 kts 18°
2026-05-04 20:42 51.46115 -0.60362 36082 ft 464 kts 18°
2026-05-04 20:42 51.52245 -0.57101 36082 ft 464 kts 18°
2026-05-04 20:43 51.58386 -0.53829 36055 ft 464 kts 18°
2026-05-04 20:43 51.64504 -0.50557 36045 ft 463 kts 18°
2026-05-04 20:44 51.70645 -0.47264 36072 ft 463 kts 18°
2026-05-04 20:44 51.76842 -0.44819 36068 ft 462 kts
2026-05-04 20:45 51.83188 -0.45801 36074 ft 459 kts 342°
2026-05-04 20:45 51.88950 -0.50091 36077 ft 455 kts 327°
2026-05-04 20:46 51.94395 -0.55389 36074 ft 456 kts 327°
2026-05-04 20:46 51.99801 -0.60664 36065 ft 457 kts 327°
2026-05-04 20:47 52.05254 -0.66008 36066 ft 457 kts 327°
2026-05-04 20:47 52.10697 -0.71356 36069 ft 457 kts 327°
2026-05-04 20:48 52.13424 -0.74038 35511 ft 460 kts 327°
2026-05-04 20:48 52.16189 -0.76760 34595 ft 467 kts 327°
2026-05-04 20:48 52.18979 -0.79513 33777 ft 470 kts 327°
2026-05-04 20:48 52.21780 -0.82289 32880 ft 471 kts 327°
2026-05-04 20:49 52.24557 -0.85044 31866 ft 470 kts 327°
2026-05-04 20:49 52.27353 -0.87822 30699 ft 469 kts 326°
2026-05-04 20:49 52.30117 -0.90570 29642 ft 464 kts 327°
2026-05-04 20:49 52.32858 -0.93299 28690 ft 456 kts 326°
2026-05-04 20:50 52.35518 -0.95948 28175 ft 439 kts 326°
2026-05-04 20:50 52.38089 -0.98501 27560 ft 426 kts 326°
2026-05-04 20:50 52.40595 -1.00996 26968 ft 421 kts 326°
2026-05-04 20:50 52.43056 -1.03458 26377 ft 418 kts 326°
2026-05-04 20:51 52.45532 -1.05946 25782 ft 416 kts 326°
2026-05-04 20:51 52.47990 -1.08424 25194 ft 414 kts 325°
2026-05-04 20:51 52.50438 -1.10894 24607 ft 412 kts 325°
2026-05-04 20:51 52.52879 -1.13356 24031 ft 411 kts 324°
2026-05-04 20:52 52.55315 -1.15811 23413 ft 409 kts 324°
2026-05-04 20:52 52.57740 -1.18256 22801 ft 406 kts 324°
2026-05-04 20:52 52.60114 -1.20651 22250 ft 403 kts 325°
2026-05-04 20:52 52.62494 -1.23051 21689 ft 400 kts 325°
2026-05-04 20:53 52.64862 -1.25441 21159 ft 397 kts 325°
2026-05-04 20:53 52.67215 -1.27823 20624 ft 395 kts 325°
2026-05-04 20:53 52.69547 -1.30187 20163 ft 392 kts 326°
2026-05-04 20:53 52.71880 -1.32562 19992 ft 397 kts 326°
2026-05-04 20:54 52.74243 -1.34971 20063 ft 400 kts 326°
2026-05-04 20:54 52.76615 -1.37390 20061 ft 401 kts 326°
2026-05-04 20:54 52.78986 -1.39808 19788 ft 398 kts 326°
2026-05-04 20:54 52.81319 -1.42192 18527 ft 403 kts 326°
2026-05-04 20:55 52.83707 -1.44640 17311 ft 404 kts 327°
2026-05-04 20:55 52.86089 -1.47081 16283 ft 400 kts 327°
2026-05-04 20:55 52.88436 -1.49489 15387 ft 393 kts 327°
2026-05-04 20:55 52.90723 -1.51834 14827 ft 377 kts 327°
2026-05-04 20:56 52.92932 -1.54105 14274 ft 370 kts 327°
2026-05-04 20:56 52.95088 -1.56329 13711 ft 369 kts 327°
2026-05-04 20:56 52.97250 -1.58562 13147 ft 364 kts 327°
2026-05-04 20:56 52.99392 -1.60780 12394 ft 360 kts 327°
2026-05-04 20:57 53.01518 -1.62985 12146 ft 360 kts 327°
2026-05-04 20:57 53.03603 -1.65141 11965 ft 344 kts 327°
2026-05-04 20:57 53.05502 -1.67406 11837 ft 328 kts 317°
2026-05-04 20:57 53.07021 -1.70113 11708 ft 313 kts 309°
2026-05-04 20:58 53.08410 -1.72815 11581 ft 301 kts 309°
2026-05-04 20:58 53.09753 -1.75421 11355 ft 294 kts 309°
2026-05-04 20:58 53.11072 -1.77978 11104 ft 289 kts 309°
2026-05-04 20:58 53.12382 -1.80516 10853 ft 287 kts 310°
2026-05-04 20:59 53.13664 -1.83004 10545 ft 286 kts 310°
2026-05-04 20:59 53.14977 -1.85550 10146 ft 286 kts 310°
2026-05-04 20:59 53.16261 -1.88041 9716 ft 287 kts 310°
2026-05-04 20:59 53.17554 -1.90564 9341 ft 285 kts 310°
2026-05-04 21:00 53.18837 -1.93074 8968 ft 282 kts 310°
2026-05-04 21:00 53.20115 -1.95579 8554 ft 282 kts 310°
2026-05-04 21:00 53.21355 -1.98012 8357 ft 273 kts 310°
2026-05-04 21:00 53.22563 -2.00380 8235 ft 263 kts 310°
2026-05-04 21:01 53.23988 -2.02312 8125 ft 271 kts 334°
2026-05-04 21:01 53.25839 -2.02938 8066 ft 276 kts
2026-05-04 21:01 53.27720 -2.02172 8078 ft 280 kts 18°
2026-05-04 21:01 53.29524 -2.01009 8076 ft 281 kts 20°
2026-05-04 21:02 53.31343 -1.99792 8076 ft 281 kts 20°
2026-05-04 21:02 53.33159 -1.98570 8081 ft 281 kts 20°
2026-05-04 21:02 53.34974 -1.97344 8076 ft 281 kts 20°
2026-05-04 21:02 53.36786 -1.96118 8074 ft 281 kts 20°
2026-05-04 21:03 53.38603 -1.94888 8073 ft 281 kts 20°
2026-05-04 21:03 53.40417 -1.93659 8073 ft 281 kts 20°
2026-05-04 21:03 53.42199 -1.92448 8065 ft 270 kts 20°
2026-05-04 21:03 53.43919 -1.91276 7816 ft 265 kts 20°
2026-05-04 21:04 53.45614 -1.90122 7559 ft 261 kts 20°
2026-05-04 21:04 53.47284 -1.88987 7309 ft 257 kts 20°
2026-05-04 21:04 53.48952 -1.87994 7066 ft 252 kts
2026-05-04 21:04 53.50669 -1.88050 6820 ft 245 kts 351°
2026-05-04 21:05 53.52339 -1.88509 6575 ft 241 kts 346°
2026-05-04 21:05 53.53801 -1.89673 6325 ft 234 kts 316°
2026-05-04 21:05 53.54660 -1.91929 6064 ft 231 kts 284°
2026-05-04 21:05 53.54666 -1.94599 5807 ft 230 kts 258°
2026-05-04 21:06 53.54259 -1.97210 5552 ft 231 kts 248°
2026-05-04 21:06 53.53254 -1.99294 5141 ft 236 kts 213°
2026-05-04 21:06 53.51716 -2.00401 4588 ft 242 kts 202°
2026-05-04 21:06 53.50162 -2.01407 4252 ft 236 kts 202°
2026-05-04 21:07 53.48657 -2.02386 3969 ft 233 kts 202°
2026-05-04 21:07 53.47200 -2.03523 3677 ft 228 kts 216°
2026-05-04 21:07 53.46059 -2.05293 3415 ft 220 kts 230°
2026-05-04 21:07 53.45114 -2.07212 3146 ft 207 kts 232°
2026-05-04 21:08 53.44245 -2.09038 2850 ft 194 kts 233°
2026-05-04 21:08 53.43419 -2.10767 2616 ft 188 kts 233°
2026-05-04 21:08 53.42612 -2.12451 2358 ft 178 kts 233°
2026-05-04 21:08 53.41861 -2.14016 2134 ft 169 kts 234°
2026-05-04 21:09 53.41130 -2.15540 1904 ft 167 kts 234°
2026-05-04 21:09 53.40406 -2.17046 1677 ft 165 kts 234°
2026-05-04 21:09 53.39715 -2.18480 1446 ft 150 kts 234°
2026-05-04 21:09 53.39075 -2.19812 1242 ft 144 kts 234°
2026-05-04 21:10 53.38464 -2.21082 1044 ft 141 kts 233°
2026-05-04 21:10 53.37852 -2.22354 850 ft 139 kts 233°
2026-05-04 21:10 53.37244 -2.23607 664 ft 138 kts 233°
2026-05-04 21:10 53.36642 -2.24845 490 ft 137 kts 233°
2026-05-04 21:11 53.36051 -2.26089 297 ft 136 kts 233°
2026-05-04 21:11 53.35501 -2.27239 262 ft 110 kts 231°
2026-05-04 21:11 53.35127 -2.28014 239 ft 61 kts 231°
2026-05-04 21:11 53.34964 -2.28458 240 ft 38 kts 255°
2026-05-04 21:12 53.34951 -2.28712 235 ft 14 kts 306°
2026-05-04 21:12 53.35020 -2.28726 232 ft 11 kts 39°
2026-05-04 21:12 53.35074 -2.28630 233 ft 12 kts 52°
2026-05-04 21:12 53.35131 -2.28510 231 ft 15 kts 51°
2026-05-04 21:13 53.35200 -2.28365 233 ft 16 kts 51°
2026-05-04 21:13 53.35276 -2.28238 235 ft 16 kts 35°
2026-05-04 21:13 53.35363 -2.28174 238 ft 10 kts
2026-05-04 21:13 53.35425 -2.28159 238 ft 9 kts
2026-05-04 21:14 53.35468 -2.28142 239 ft 4 kts 18°
2026-05-04 21:14 53.35495 -2.28122 239 ft 5 kts 27°
2026-05-04 21:14 53.35527 -2.28086 239 ft 6 kts 38°
2026-05-04 21:14 53.35563 -2.28031 240 ft 8 kts 46°
2026-05-04 21:15 53.35590 -2.27976 243 ft 4 kts 52°
2026-05-04 21:15 53.35607 -2.27939 245 ft 8 kts 51°
2026-05-04 21:15 53.35656 -2.27888 247 ft 9 kts
2026-05-04 21:15 53.35724 -2.27877 247 ft 11 kts
2026-05-04 21:16 53.35806 -2.27864 247 ft 9 kts
2026-05-04 21:16 53.35862 -2.27854 247 ft 9 kts
2026-05-04 21:16 53.35930 -2.27843 247 ft 10 kts
2026-05-04 21:16 53.35998 -2.27887 247 ft 12 kts 320°
2026-05-04 21:17 53.36059 -2.27987 247 ft 12 kts 315°
2026-05-04 21:17 53.36123 -2.28094 247 ft 14 kts 315°
2026-05-04 21:17 53.36195 -2.28216 248 ft 13 kts 315°
2026-05-04 21:17 53.36253 -2.28314 247 ft 12 kts 314°
2026-05-04 21:18 53.36319 -2.28427 247 ft 15 kts 314°
2026-05-04 21:18 53.36381 -2.28459 247 ft 10 kts 22°
2026-05-04 21:18 53.36431 -2.28386 247 ft 8 kts 44°
2026-05-04 21:18 53.36469 -2.28324 247 ft 8 kts 44°
2026-05-04 21:19 53.36507 -2.28261 247 ft 8 kts 44°
2026-05-04 21:19 53.36546 -2.28198 247 ft 8 kts 43°
2026-05-04 21:19 53.36581 -2.28174 247 ft 4 kts 346°
2026-05-04 21:19 53.36608 -2.28209 247 ft 5 kts 310°
2026-05-04 21:20 53.36627 -2.28244 247 ft 3 kts 316°
2026-05-04 21:20 53.36640 -2.28266 247 ft 0 kts 315°
2026-05-04 21:20 53.36642 -2.28268 247 ft 0 kts 315°